Location: Zagreb
(45.8000°N, 16.0000°E)
Time: 02:20:25
(UTC+02:00)

Transit 2A Rocket - Pass Details

Date: 29 January 2022
Orbit: 592 x 909 km, 66.7° (Epoch: 26 May)

Event Time Altitude Azimuth Distance (km) Brightness Sun altitude
Rises 01:50:53 0° 329° (NNW) 3,459 - -55.1°
Reaches altitude 10° 01:53:34 10° 335° (NNW) 2,479 - -54.8°
Maximum altitude 01:59:04 47° 49° (NE) 1,046 - -54.0°
Drops below altitude 10° 02:04:06 10° 123° (ESE) 2,264 - -53.4°
Sets 02:06:27 0° 130° (SE) 3,132 - -53.1°
